Location: Montreal
(45.5000°N, 73.5833°W)
Time: 22:35:17
(UTC-05:00)

Vanguard 2 Rocket - Visible Passes

Search period start: 18 February 2018 00:00
Search period end: 28 February 2018 00:00
Orbit: 555 x 3327 km, 32.9° (Epoch: 18 February)

Date Brightness Start Highest point End Pass type
(mag) Time Alt. Az. Time Alt. Az. Time Alt. Az.
18 Feb 9.7 02:15:09 51° SSE 02:15:09 51° SSE 02:30:28 10° ESE visible
18 Feb 9.8 04:20:57 34° WSW 04:28:13 43° SSW 04:44:24 10° SE visible
19 Feb 10.1 01:18:55 36° ESE 01:18:55 36° ESE 01:29:16 10° ESE visible
19 Feb 9.6 03:24:43 47° SSW 03:26:52 49° SSW 03:44:37 10° SE visible
19 Feb 10.2 05:30:32 16° W 05:42:24 28° SW 05:55:47 10° S visible
20 Feb 10.6 00:22:45 21° ESE 00:22:45 21° ESE 00:27:35 10° E visible
20 Feb 9.7 02:28:33 50° SSE 02:28:33 50° SSE 02:44:10 10° ESE visible
20 Feb 10.0 04:34:21 29° WSW 04:41:38 36° SSW 04:57:12 10° SSE visible
21 Feb 10.1 01:32:27 37° SE 01:32:27 37° SE 01:43:07 10° ESE visible
21 Feb 9.7 03:38:15 41° SW 03:40:28 42° SSW 03:57:46 10° SE visible
21 Feb 10.4 05:44:04 11° W 05:55:29 21° SW 06:06:59 10° S visible
22 Feb 10.6 00:36:24 22° ESE 00:36:24 22° ESE 00:41:31 10° ESE visible
22 Feb 9.8 02:42:13 45° S 02:42:13 45° S 02:57:35 10° SE visible
22 Feb 10.1 04:48:02 23° WSW 04:54:54 28° SW 05:09:16 10° SSE visible
22 Feb 9.8 20:58:54 10° SSW 20:59:50 13° SSW 20:59:50 13° SSW visible
23 Feb 10.1 01:46:15 35° SE 01:46:15 35° SE 01:56:43 10° ESE visible
23 Feb 9.9 03:52:04 34° SW 03:53:58 35° SSW 04:10:21 10° SSE visible
23 Feb 10.6 06:01:00 10° WSW 06:08:29 13° SW 06:15:44 10° SSW visible
23 Feb 9.5 20:01:42 10° S 20:04:05 16° SSE 20:04:05 16° SSE visible
24 Feb 10.6 00:50:20 21° ESE 00:50:20 21° ESE 00:55:17 10° ESE visible
24 Feb 9.9 02:56:10 39° S 02:56:10 39° S 03:10:32 10° SE visible
24 Feb 10.3 05:02:00 17° WSW 05:08:06 20° SW 05:20:09 10° S visible
24 Feb 9.6 19:06:58 10° SE 19:08:18 11° SE 19:08:18 11° SE visible
24 Feb 9.6 21:12:15 10° SSW 21:14:09 18° SSW 21:14:09 18° SSW visible
25 Feb 10.2 02:00:20 32° SSE 02:00:20 32° SSE 02:10:00 10° SE visible
25 Feb 10.1 04:06:10 27° SW 04:07:22 27° SW 04:22:09 10° SSE visible
25 Feb 9.2 20:14:26 10° SSW 20:18:21 22° S 20:18:21 22° S visible
26 Feb 10.6 01:04:32 19° SE 01:04:32 19° SE 01:08:47 10° ESE visible
26 Feb 10.1 03:10:23 31° S 03:10:23 31° S 03:22:55 10° SSE visible
26 Feb 10.5 05:16:13 11° WSW 05:21:16 13° SW 05:28:17 10° SSW visible
26 Feb 9.3 19:17:34 10° S 19:22:23 17° SE 19:22:31 17° SE visible
26 Feb 9.5 21:26:00 10° SW 21:28:21 21° SW 21:28:21 21° SW visible
27 Feb 10.3 02:14:39 26° SSE 02:14:39 26° SSE 02:22:48 10° SE visible
27 Feb 10.3 04:20:29 19° SW 04:20:44 19° SW 04:32:38 10° S visible
27 Feb 8.9 20:27:50 10° SSW 20:32:28 28° S 20:32:28 28° S visible
